owner,sensor,date,latitude,longitude,vertical_datum,sea_water_temperature,qcFlag 
TCOON,ioos:station:TCOON:127:1,2015-02-01T00:18:00Z,28.2598,-96.7737,0.0,16.2,2 
TCOON,ioos:station:TCOON:127:1,2015-02-01T01:18:00Z,28.2598,-96.7737,0.0,16.2,2 
TCOON,ioos:station:TCOON:127:1,2015-02-01T02:18:00Z,28.2598,-96.7737,0.0,16.2,2 
TCOON,ioos:station:TCOON:127:1,2015-02-01T03:18:00Z,28.2598,-96.7737,0.0,16.2,2 
TCOON,ioos:station:TCOON:127:1,2015-02-01T04:12:00Z,28.2598,-96.7737,0.0,16.2,2 
TCOON,ioos:station:TCOON:127:1,2015-02-01T05:18:00Z,28.2598,-96.7737,0.0,16.2,2 
TCOON,ioos:station:TCOON:127:1,2015-02-01T06:18:00Z,28.2598,-96.7737,0.0,16.2,2 
TCOON,ioos:station:TCOON:127:1,2015-02-01T07:18:00Z,28.2598,-96.7737,0.0,16.2,2 
TCOON,ioos:station:TCOON:127:1,2015-02-01T08:18:00Z,28.2598,-96.7737,0.0,16.2,2 
TCOON,ioos:station:TCOON:127:1,2015-02-01T09:18:00Z,28.2598,-96.7737,0.0,16.2,2 
TCOON,ioos:station:TCOON:127:1,2015-02-01T10:12:00Z,28.2598,-96.7737,0.0,16.2,2 
TCOON,ioos:station:TCOON:127:1,2015-02-01T11:18:00Z,28.2598,-96.7737,0.0,16.2,2 
TCOON,ioos:station:TCOON:127:1,2015-02-01T12:18:00Z,28.2598,-96.7737,0.0,16.1,2 
TCOON,ioos:station:TCOON:127:1,2015-02-01T13:18:00Z,28.2598,-96.7737,0.0,16.2,2 
TCOON,ioos:station:TCOON:127:1,2015-02-01T14:18:00Z,28.2598,-96.7737,0.0,16.2,2 
TCOON,ioos:station:TCOON:127:1,2015-02-01T15:12:00Z,28.2598,-96.7737,0.0,16.3,2 
TCOON,ioos:station:TCOON:127:1,2015-02-01T16:18:00Z,28.2598,-96.7737,0.0,16.3,2 
TCOON,ioos:station:TCOON:127:1,2015-02-01T17:12:00Z,28.2598,-96.7737,0.0,16.4,2 
TCOON,ioos:station:TCOON:127:1,2015-02-01T18:12:00Z,28.2598,-96.7737,0.0,16.4,2 
TCOON,ioos:station:TCOON:127:1,2015-02-01T19:18:00Z,28.2598,-96.7737,0.0,16.8,2 
TCOON,ioos:station:TCOON:127:1,2015-02-01T20:18:00Z,28.2598,-96.7737,0.0,17.1,2 
TCOON,ioos:station:TCOON:127:1,2015-02-01T21:12:00Z,28.2598,-96.7737,0.0,17.3,2 
TCOON,ioos:station:TCOON:127:1,2015-02-01T22:18:00Z,28.2598,-96.7737,0.0,17.4,2 
TCOON,ioos:station:TCOON:127:1,2015-02-01T23:18:00Z,28.2598,-96.7737,0.0,17.5,2 
TCOON,ioos:station:TCOON:127:1,2015-02-02T00:18:00Z,28.2598,-96.7737,0.0,17.5,2 
TCOON,ioos:station:TCOON:127:1,2015-02-02T01:18:00Z,28.2598,-96.7737,0.0,17.5,2 
TCOON,ioos:station:TCOON:127:1,2015-02-02T02:18:00Z,28.2598,-96.7737,0.0,17.5,2 
TCOON,ioos:station:TCOON:127:1,2015-02-02T03:12:00Z,28.2598,-96.7737,0.0,17.4,2 
TCOON,ioos:station:TCOON:127:1,2015-02-02T04:18:00Z,28.2598,-96.7737,0.0,17.3,2 
TCOON,ioos:station:TCOON:127:1,2015-02-02T05:18:00Z,28.2598,-96.7737,0.0,17.2,2 
TCOON,ioos:station:TCOON:127:1,2015-02-02T06:18:00Z,28.2598,-96.7737,0.0,17.0,2 
TCOON,ioos:station:TCOON:127:1,2015-02-02T07:18:00Z,28.2598,-96.7737,0.0,16.8,2 
TCOON,ioos:station:TCOON:127:1,2015-02-02T08:18:00Z,28.2598,-96.7737,0.0,16.3,2 
TCOON,ioos:station:TCOON:127:1,2015-02-02T09:18:00Z,28.2598,-96.7737,0.0,16.0,2 
TCOON,ioos:station:TCOON:127:1,2015-02-02T10:12:00Z,28.2598,-96.7737,0.0,15.8,2 
TCOON,ioos:station:TCOON:127:1,2015-02-02T11:18:00Z,28.2598,-96.7737,0.0,15.5,2 
TCOON,ioos:station:TCOON:127:1,2015-02-02T12:18:00Z,28.2598,-96.7737,0.0,15.3,2 
TCOON,ioos:station:TCOON:127:1,2015-02-02T13:18:00Z,28.2598,-96.7737,0.0,15.2,2 
TCOON,ioos:station:TCOON:127:1,2015-02-02T14:18:00Z,28.2598,-96.7737,0.0,14.9,2 
TCOON,ioos:station:TCOON:127:1,2015-02-02T15:18:00Z,28.2598,-96.7737,0.0,14.7,2 
TCOON,ioos:station:TCOON:127:1,2015-02-02T16:18:00Z,28.2598,-96.7737,0.0,14.6,2 
TCOON,ioos:station:TCOON:127:1,2015-02-02T17:18:00Z,28.2598,-96.7737,0.0,14.6,2 
TCOON,ioos:station:TCOON:127:1,2015-02-02T18:18:00Z,28.2598,-96.7737,0.0,14.6,2 
TCOON,ioos:station:TCOON:127:1,2015-02-02T19:18:00Z,28.2598,-96.7737,0.0,14.6,2 
TCOON,ioos:station:TCOON:127:1,2015-02-02T20:18:00Z,28.2598,-96.7737,0.0,14.7,2 
TCOON,ioos:station:TCOON:127:1,2015-02-02T21:18:00Z,28.2598,-96.7737,0.0,14.7,2 
TCOON,ioos:station:TCOON:127:1,2015-02-02T22:30:00Z,28.2598,-96.7737,0.0,14.7,2 
TCOON,ioos:station:TCOON:127:1,2015-02-02T23:18:00Z,28.2598,-96.7737,0.0,14.6,2 
TCOON,ioos:station:TCOON:127:1,2015-02-03T00:18:00Z,28.2598,-96.7737,0.0,14.5,2 
TCOON,ioos:station:TCOON:127:1,2015-02-03T01:24:00Z,28.2598,-96.7737,0.0,14.4,2 
TCOON,ioos:station:TCOON:127:1,2015-02-03T02:18:00Z,28.2598,-96.7737,0.0,14.3,2 
TCOON,ioos:station:TCOON:127:1,2015-02-03T03:12:00Z,28.2598,-96.7737,0.0,14.2,2 
TCOON,ioos:station:TCOON:127:1,2015-02-03T04:18:00Z,28.2598,-96.7737,0.0,14.0,2 
TCOON,ioos:station:TCOON:127:1,2015-02-03T05:18:00Z,28.2598,-96.7737,0.0,13.9,2 
TCOON,ioos:station:TCOON:127:1,2015-02-03T06:18:00Z,28.2598,-96.7737,0.0,13.9,2 
TCOON,ioos:station:TCOON:127:1,2015-02-03T07:18:00Z,28.2598,-96.7737,0.0,13.7,2 
TCOON,ioos:station:TCOON:127:1,2015-02-03T08:18:00Z,28.2598,-96.7737,0.0,13.6,2 
TCOON,ioos:station:TCOON:127:1,2015-02-03T09:18:00Z,28.2598,-96.7737,0.0,13.5,2 
TCOON,ioos:station:TCOON:127:1,2015-02-03T10:18:00Z,28.2598,-96.7737,0.0,13.4,2 
TCOON,ioos:station:TCOON:127:1,2015-02-03T11:18:00Z,28.2598,-96.7737,0.0,13.3,2 
TCOON,ioos:station:TCOON:127:1,2015-02-03T12:18:00Z,28.2598,-96.7737,0.0,13.2,2 
TCOON,ioos:station:TCOON:127:1,2015-02-03T13:18:00Z,28.2598,-96.7737,0.0,13.2,2 
TCOON,ioos:station:TCOON:127:1,2015-02-03T14:18:00Z,28.2598,-96.7737,0.0,13.1,2 
TCOON,ioos:station:TCOON:127:1,2015-02-03T15:18:00Z,28.2598,-96.7737,0.0,13.1,2 
TCOON,ioos:station:TCOON:127:1,2015-02-03T16:18:00Z,28.2598,-96.7737,0.0,13.1,2 
TCOON,ioos:station:TCOON:127:1,2015-02-03T17:18:00Z,28.2598,-96.7737,0.0,13.1,2 
TCOON,ioos:station:TCOON:127:1,2015-02-03T18:18:00Z,28.2598,-96.7737,0.0,13.0,2 
TCOON,ioos:station:TCOON:127:1,2015-02-03T19:18:00Z,28.2598,-96.7737,0.0,13.0,2 
TCOON,ioos:station:TCOON:127:1,2015-02-03T20:18:00Z,28.2598,-96.7737,0.0,13.0,2 
TCOON,ioos:station:TCOON:127:1,2015-02-03T21:18:00Z,28.2598,-96.7737,0.0,12.9,2 
TCOON,ioos:station:TCOON:127:1,2015-02-03T22:18:00Z,28.2598,-96.7737,0.0,12.8,2 
TCOON,ioos:station:TCOON:127:1,2015-02-03T23:12:00Z,28.2598,-96.7737,0.0,12.8,2 
TCOON,ioos:station:TCOON:127:1,2015-02-04T00:18:00Z,28.2598,-96.7737,0.0,12.7,2 
TCOON,ioos:station:TCOON:127:1,2015-02-04T01:24:00Z,28.2598,-96.7737,0.0,12.6,2 
TCOON,ioos:station:TCOON:127:1,2015-02-04T02:18:00Z,28.2598,-96.7737,0.0,12.6,2 
TCOON,ioos:station:TCOON:127:1,2015-02-04T03:12:00Z,28.2598,-96.7737,0.0,12.5,2 
TCOON,ioos:station:TCOON:127:1,2015-02-04T04:18:00Z,28.2598,-96.7737,0.0,12.4,2 
TCOON,ioos:station:TCOON:127:1,2015-02-04T05:18:00Z,28.2598,-96.7737,0.0,12.4,2 
TCOON,ioos:station:TCOON:127:1,2015-02-04T06:18:00Z,28.2598,-96.7737,0.0,12.4,2 
TCOON,ioos:station:TCOON:127:1,2015-02-04T07:18:00Z,28.2598,-96.7737,0.0,12.4,2 
TCOON,ioos:station:TCOON:127:1,2015-02-04T08:18:00Z,28.2598,-96.7737,0.0,12.3,2 
TCOON,ioos:station:TCOON:127:1,2015-02-04T09:18:00Z,28.2598,-96.7737,0.0,12.3,2 
TCOON,ioos:station:TCOON:127:1,2015-02-04T10:18:00Z,28.2598,-96.7737,0.0,12.2,2 
TCOON,ioos:station:TCOON:127:1,2015-02-04T11:24:00Z,28.2598,-96.7737,0.0,12.2,2 
TCOON,ioos:station:TCOON:127:1,2015-02-04T12:18:00Z,28.2598,-96.7737,0.0,12.1,2 
TCOON,ioos:station:TCOON:127:1,2015-02-04T13:18:00Z,28.2598,-96.7737,0.0,12.1,2 
TCOON,ioos:station:TCOON:127:1,2015-02-04T14:18:00Z,28.2598,-96.7737,0.0,12.1,2 
TCOON,ioos:station:TCOON:127:1,2015-02-04T15:18:00Z,28.2598,-96.7737,0.0,12.0,2 
TCOON,ioos:station:TCOON:127:1,2015-02-04T16:18:00Z,28.2598,-96.7737,0.0,12.1,2 
TCOON,ioos:station:TCOON:127:1,2015-02-04T17:18:00Z,28.2598,-96.7737,0.0,12.2,2 
TCOON,ioos:station:TCOON:127:1,2015-02-04T18:18:00Z,28.2598,-96.7737,0.0,12.4,2 
TCOON,ioos:station:TCOON:127:1,2015-02-04T19:18:00Z,28.2598,-96.7737,0.0,12.5,2 
TCOON,ioos:station:TCOON:127:1,2015-02-04T20:18:00Z,28.2598,-96.7737,0.0,12.6,2 
TCOON,ioos:station:TCOON:127:1,2015-02-04T21:18:00Z,28.2598,-96.7737,0.0,12.8,2 
TCOON,ioos:station:TCOON:127:1,2015-02-04T22:42:00Z,28.2598,-96.7737,0.0,13.0,2 
TCOON,ioos:station:TCOON:127:1,2015-02-04T23:24:00Z,28.2598,-96.7737,0.0,12.9,2 
TCOON,ioos:station:TCOON:127:1,2015-02-05T00:12:00Z,28.2598,-96.7737,0.0,12.8,2 
TCOON,ioos:station:TCOON:127:1,2015-02-05T01:18:00Z,28.2598,-96.7737,0.0,12.9,2 
TCOON,ioos:station:TCOON:127:1,2015-02-05T02:18:00Z,28.2598,-96.7737,0.0,12.9,2 
TCOON,ioos:station:TCOON:127:1,2015-02-05T03:12:00Z,28.2598,-96.7737,0.0,12.9,2 
TCOON,ioos:station:TCOON:127:1,2015-02-05T04:18:00Z,28.2598,-96.7737,0.0,12.9,2 
TCOON,ioos:station:TCOON:127:1,2015-02-05T05:18:00Z,28.2598,-96.7737,0.0,12.9,2 
TCOON,ioos:station:TCOON:127:1,2015-02-05T06:18:00Z,28.2598,-96.7737,0.0,12.9,2 
TCOON,ioos:station:TCOON:127:1,2015-02-05T07:12:00Z,28.2598,-96.7737,0.0,12.9,2 
TCOON,ioos:station:TCOON:127:1,2015-02-05T08:12:00Z,28.2598,-96.7737,0.0,13.0,2 
TCOON,ioos:station:TCOON:127:1,2015-02-05T09:12:00Z,28.2598,-96.7737,0.0,13.0,2 
TCOON,ioos:station:TCOON:127:1,2015-02-05T10:12:00Z,28.2598,-96.7737,0.0,12.9,2 
TCOON,ioos:station:TCOON:127:1,2015-02-05T11:12:00Z,28.2598,-96.7737,0.0,12.9,2 
TCOON,ioos:station:TCOON:127:1,2015-02-05T12:12:00Z,28.2598,-96.7737,0.0,12.9,2 
TCOON,ioos:station:TCOON:127:1,2015-02-05T13:12:00Z,28.2598,-96.7737,0.0,12.9,2 
TCOON,ioos:station:TCOON:127:1,2015-02-05T14:18:00Z,28.2598,-96.7737,0.0,12.9,2 
TCOON,ioos:station:TCOON:127:1,2015-02-05T15:18:00Z,28.2598,-96.7737,0.0,12.8,2 
TCOON,ioos:station:TCOON:127:1,2015-02-05T16:18:00Z,28.2598,-96.7737,0.0,12.7,2 
TCOON,ioos:station:TCOON:127:1,2015-02-05T17:18:00Z,28.2598,-96.7737,0.0,12.7,2 
TCOON,ioos:station:TCOON:127:1,2015-02-05T18:18:00Z,28.2598,-96.7737,0.0,12.7,2 
TCOON,ioos:station:TCOON:127:1,2015-02-05T19:18:00Z,28.2598,-96.7737,0.0,12.7,2 
TCOON,ioos:station:TCOON:127:1,2015-02-05T20:24:00Z,28.2598,-96.7737,0.0,12.7,2 
TCOON,ioos:station:TCOON:127:1,2015-02-05T21:18:00Z,28.2598,-96.7737,0.0,12.8,2 
TCOON,ioos:station:TCOON:127:1,2015-02-05T22:24:00Z,28.2598,-96.7737,0.0,12.8,2 
TCOON,ioos:station:TCOON:127:1,2015-02-05T23:18:00Z,28.2598,-96.7737,0.0,12.8,2 
TCOON,ioos:station:TCOON:127:1,2015-02-06T00:18:00Z,28.2598,-96.7737,0.0,12.7,2 
TCOON,ioos:station:TCOON:127:1,2015-02-06T01:18:00Z,28.2598,-96.7737,0.0,12.7,2 
TCOON,ioos:station:TCOON:127:1,2015-02-06T02:18:00Z,28.2598,-96.7737,0.0,12.6,2 
TCOON,ioos:station:TCOON:127:1,2015-02-06T03:12:00Z,28.2598,-96.7737,0.0,12.5,2 
TCOON,ioos:station:TCOON:127:1,2015-02-06T04:12:00Z,28.2598,-96.7737,0.0,12.4,2 
TCOON,ioos:station:TCOON:127:1,2015-02-06T05:12:00Z,28.2598,-96.7737,0.0,12.3,2 
TCOON,ioos:station:TCOON:127:1,2015-02-06T06:18:00Z,28.2598,-96.7737,0.0,12.2,2 
TCOON,ioos:station:TCOON:127:1,2015-02-06T07:12:00Z,28.2598,-96.7737,0.0,12.2,2 
TCOON,ioos:station:TCOON:127:1,2015-02-06T08:12:00Z,28.2598,-96.7737,0.0,12.1,2 
TCOON,ioos:station:TCOON:127:1,2015-02-06T09:18:00Z,28.2598,-96.7737,0.0,12.1,2 
TCOON,ioos:station:TCOON:127:1,2015-02-06T10:12:00Z,28.2598,-96.7737,0.0,12.0,2 
TCOON,ioos:station:TCOON:127:1,2015-02-06T11:12:00Z,28.2598,-96.7737,0.0,11.9,2 
TCOON,ioos:station:TCOON:127:1,2015-02-06T12:18:00Z,28.2598,-96.7737,0.0,11.9,2 
TCOON,ioos:station:TCOON:127:1,2015-02-06T13:18:00Z,28.2598,-96.7737,0.0,11.8,2 
TCOON,ioos:station:TCOON:127:1,2015-02-06T14:12:00Z,28.2598,-96.7737,0.0,11.7,2 
TCOON,ioos:station:TCOON:127:1,2015-02-06T15:18:00Z,28.2598,-96.7737,0.0,11.7,2 
TCOON,ioos:station:TCOON:127:1,2015-02-06T16:18:00Z,28.2598,-96.7737,0.0,11.7,2 
TCOON,ioos:station:TCOON:127:1,2015-02-06T17:18:00Z,28.2598,-96.7737,0.0,11.7,2 
TCOON,ioos:station:TCOON:127:1,2015-02-06T18:18:00Z,28.2598,-96.7737,0.0,11.8,2 
TCOON,ioos:station:TCOON:127:1,2015-02-06T19:18:00Z,28.2598,-96.7737,0.0,12.0,2 
TCOON,ioos:station:TCOON:127:1,2015-02-06T20:18:00Z,28.2598,-96.7737,0.0,12.2,2 
TCOON,ioos:station:TCOON:127:1,2015-02-06T21:18:00Z,28.2598,-96.7737,0.0,12.3,2 
TCOON,ioos:station:TCOON:127:1,2015-02-06T22:18:00Z,28.2598,-96.7737,0.0,12.6,2 
TCOON,ioos:station:TCOON:127:1,2015-02-06T23:12:00Z,28.2598,-96.7737,0.0,12.5,2 
TCOON,ioos:station:TCOON:127:1,2015-02-07T00:18:00Z,28.2598,-96.7737,0.0,12.4,2 
TCOON,ioos:station:TCOON:127:1,2015-02-07T01:24:00Z,28.2598,-96.7737,0.0,12.4,2 
TCOON,ioos:station:TCOON:127:1,2015-02-07T02:18:00Z,28.2598,-96.7737,0.0,12.3,2 
TCOON,ioos:station:TCOON:127:1,2015-02-07T03:18:00Z,28.2598,-96.7737,0.0,12.3,2 
TCOON,ioos:station:TCOON:127:1,2015-02-07T04:18:00Z,28.2598,-96.7737,0.0,12.2,2 
TCOON,ioos:station:TCOON:127:1,2015-02-07T05:18:00Z,28.2598,-96.7737,0.0,12.2,2 
TCOON,ioos:station:TCOON:127:1,2015-02-07T07:30:00Z,28.2598,-96.7737,0.0,12.2,2 
TCOON,ioos:station:TCOON:127:1,2015-02-07T08:24:00Z,28.2598,-96.7737,0.0,12.2,2 
TCOON,ioos:station:TCOON:127:1,2015-02-07T09:18:00Z,28.2598,-96.7737,0.0,12.3,2 
TCOON,ioos:station:TCOON:127:1,2015-02-07T10:18:00Z,28.2598,-96.7737,0.0,12.3,2 
TCOON,ioos:station:TCOON:127:1,2015-02-07T11:12:00Z,28.2598,-96.7737,0.0,12.6,2 
TCOON,ioos:station:TCOON:127:1,2015-02-07T12:18:00Z,28.2598,-96.7737,0.0,12.6,2 
TCOON,ioos:station:TCOON:127:1,2015-02-07T13:12:00Z,28.2598,-96.7737,0.0,12.5,2 
TCOON,ioos:station:TCOON:127:1,2015-02-07T14:12:00Z,28.2598,-96.7737,0.0,12.5,2 
TCOON,ioos:station:TCOON:127:1,2015-02-07T15:12:00Z,28.2598,-96.7737,0.0,12.8,2 
TCOON,ioos:station:TCOON:127:1,2015-02-07T16:12:00Z,28.2598,-96.7737,0.0,12.6,2 
TCOON,ioos:station:TCOON:127:1,2015-02-07T17:12:00Z,28.2598,-96.7737,0.0,12.7,2 
TCOON,ioos:station:TCOON:127:1,2015-02-07T18:24:00Z,28.2598,-96.7737,0.0,12.5,2 
TCOON,ioos:station:TCOON:127:1,2015-02-07T19:12:00Z,28.2598,-96.7737,0.0,13.1,2 
TCOON,ioos:station:TCOON:127:1,2015-02-07T20:18:00Z,28.2598,-96.7737,0.0,12.9,2 
TCOON,ioos:station:TCOON:127:1,2015-02-07T21:18:00Z,28.2598,-96.7737,0.0,13.0,2 
TCOON,ioos:station:TCOON:127:1,2015-02-07T22:12:00Z,28.2598,-96.7737,0.0,13.3,2 
TCOON,ioos:station:TCOON:127:1,2015-02-07T23:12:00Z,28.2598,-96.7737,0.0,13.8,2 
TCOON,ioos:station:TCOON:127:1,2015-02-08T00:12:00Z,28.2598,-96.7737,0.0,14.1,2 
TCOON,ioos:station:TCOON:127:1,2015-02-08T01:18:00Z,28.2598,-96.7737,0.0,14.1,2 
TCOON,ioos:station:TCOON:127:1,2015-02-08T02:12:00Z,28.2598,-96.7737,0.0,14.1,2 
TCOON,ioos:station:TCOON:127:1,2015-02-08T03:12:00Z,28.2598,-96.7737,0.0,13.6,2 
TCOON,ioos:station:TCOON:127:1,2015-02-08T04:18:00Z,28.2598,-96.7737,0.0,13.9,2 
TCOON,ioos:station:TCOON:127:1,2015-02-08T05:18:00Z,28.2598,-96.7737,0.0,13.5,2 
TCOON,ioos:station:TCOON:127:1,2015-02-08T06:18:00Z,28.2598,-96.7737,0.0,13.6,2 
TCOON,ioos:station:TCOON:127:1,2015-02-08T07:12:00Z,28.2598,-96.7737,0.0,13.7,2 
TCOON,ioos:station:TCOON:127:1,2015-02-08T08:18:00Z,28.2598,-96.7737,0.0,13.7,2 
TCOON,ioos:station:TCOON:127:1,2015-02-08T09:18:00Z,28.2598,-96.7737,0.0,13.7,2 
TCOON,ioos:station:TCOON:127:1,2015-02-08T10:30:00Z,28.2598,-96.7737,0.0,13.7,2 
TCOON,ioos:station:TCOON:127:1,2015-02-08T11:12:00Z,28.2598,-96.7737,0.0,13.7,2 
TCOON,ioos:station:TCOON:127:1,2015-02-08T12:36:00Z,28.2598,-96.7737,0.0,13.7,2 
TCOON,ioos:station:TCOON:127:1,2015-02-08T13:12:00Z,28.2598,-96.7737,0.0,13.7,2 
TCOON,ioos:station:TCOON:127:1,2015-02-08T14:18:00Z,28.2598,-96.7737,0.0,13.6,2 
TCOON,ioos:station:TCOON:127:1,2015-02-08T15:18:00Z,28.2598,-96.7737,0.0,13.7,2 
TCOON,ioos:station:TCOON:127:1,2015-02-08T16:12:00Z,28.2598,-96.7737,0.0,13.8,2 
TCOON,ioos:station:TCOON:127:1,2015-02-08T17:18:00Z,28.2598,-96.7737,0.0,14.1,2 
TCOON,ioos:station:TCOON:127:1,2015-02-08T18:12:00Z,28.2598,-96.7737,0.0,14.2,2 
TCOON,ioos:station:TCOON:127:1,2015-02-08T19:12:00Z,28.2598,-96.7737,0.0,14.5,2 
TCOON,ioos:station:TCOON:127:1,2015-02-08T20:12:00Z,28.2598,-96.7737,0.0,14.8,2 
TCOON,ioos:station:TCOON:127:1,2015-02-08T21:18:00Z,28.2598,-96.7737,0.0,15.1,2 
TCOON,ioos:station:TCOON:127:1,2015-02-08T22:12:00Z,28.2598,-96.7737,0.0,15.3,2 
TCOON,ioos:station:TCOON:127:1,2015-02-08T23:12:00Z,28.2598,-96.7737,0.0,15.4,2 
TCOON,ioos:station:TCOON:127:1,2015-02-09T00:18:00Z,28.2598,-96.7737,0.0,15.5,2 
TCOON,ioos:station:TCOON:127:1,2015-02-09T01:12:00Z,28.2598,-96.7737,0.0,15.5,2 
TCOON,ioos:station:TCOON:127:1,2015-02-09T02:18:00Z,28.2598,-96.7737,0.0,15.5,2 
TCOON,ioos:station:TCOON:127:1,2015-02-09T03:12:00Z,28.2598,-96.7737,0.0,15.5,2 
TCOON,ioos:station:TCOON:127:1,2015-02-09T04:12:00Z,28.2598,-96.7737,0.0,15.4,2 
TCOON,ioos:station:TCOON:127:1,2015-02-09T05:12:00Z,28.2598,-96.7737,0.0,15.4,2 
TCOON,ioos:station:TCOON:127:1,2015-02-09T06:18:00Z,28.2598,-96.7737,0.0,15.5,2 
TCOON,ioos:station:TCOON:127:1,2015-02-09T07:12:00Z,28.2598,-96.7737,0.0,15.4,2 
TCOON,ioos:station:TCOON:127:1,2015-02-09T08:12:00Z,28.2598,-96.7737,0.0,15.5,2 
TCOON,ioos:station:TCOON:127:1,2015-02-09T09:12:00Z,28.2598,-96.7737,0.0,15.4,2 
TCOON,ioos:station:TCOON:127:1,2015-02-09T10:18:00Z,28.2598,-96.7737,0.0,15.3,2 
TCOON,ioos:station:TCOON:127:1,2015-02-09T11:12:00Z,28.2598,-96.7737,0.0,15.4,2 
TCOON,ioos:station:TCOON:127:1,2015-02-09T12:12:00Z,28.2598,-96.7737,0.0,15.4,2 
TCOON,ioos:station:TCOON:127:1,2015-02-09T13:12:00Z,28.2598,-96.7737,0.0,15.3,2 
TCOON,ioos:station:TCOON:127:1,2015-02-09T14:18:00Z,28.2598,-96.7737,0.0,15.3,2 
TCOON,ioos:station:TCOON:127:1,2015-02-09T15:18:00Z,28.2598,-96.7737,0.0,15.3,2 
TCOON,ioos:station:TCOON:127:1,2015-02-09T16:18:00Z,28.2598,-96.7737,0.0,15.4,2 
TCOON,ioos:station:TCOON:127:1,2015-02-09T17:18:00Z,28.2598,-96.7737,0.0,15.6,2 
TCOON,ioos:station:TCOON:127:1,2015-02-09T18:18:00Z,28.2598,-96.7737,0.0,15.6,2 
TCOON,ioos:station:TCOON:127:1,2015-02-09T19:18:00Z,28.2598,-96.7737,0.0,16.0,2 
TCOON,ioos:station:TCOON:127:1,2015-02-09T20:18:00Z,28.2598,-96.7737,0.0,16.1,2 
TCOON,ioos:station:TCOON:127:1,2015-02-09T21:18:00Z,28.2598,-96.7737,0.0,16.1,2 
TCOON,ioos:station:TCOON:127:1,2015-02-09T22:18:00Z,28.2598,-96.7737,0.0,16.4,2 
TCOON,ioos:station:TCOON:127:1,2015-02-09T23:24:00Z,28.2598,-96.7737,0.0,16.4,2 
TCOON,ioos:station:TCOON:127:1,2015-02-10T00:18:00Z,28.2598,-96.7737,0.0,17.1,2 
TCOON,ioos:station:TCOON:127:1,2015-02-10T01:30:00Z,28.2598,-96.7737,0.0,17.0,2 
TCOON,ioos:station:TCOON:127:1,2015-02-10T02:18:00Z,28.2598,-96.7737,0.0,17.2,2 
TCOON,ioos:station:TCOON:127:1,2015-02-10T03:18:00Z,28.2598,-96.7737,0.0,16.3,2 
TCOON,ioos:station:TCOON:127:1,2015-02-10T04:18:00Z,28.2598,-96.7737,0.0,16.2,2 
TCOON,ioos:station:TCOON:127:1,2015-02-10T05:18:00Z,28.2598,-96.7737,0.0,16.4,2 
TCOON,ioos:station:TCOON:127:1,2015-02-10T06:18:00Z,28.2598,-96.7737,0.0,16.3,2 
TCOON,ioos:station:TCOON:127:1,2015-02-10T07:12:00Z,28.2598,-96.7737,0.0,17.3,2 
TCOON,ioos:station:TCOON:127:1,2015-02-10T08:18:00Z,28.2598,-96.7737,0.0,17.2,2 
TCOON,ioos:station:TCOON:127:1,2015-02-10T09:18:00Z,28.2598,-96.7737,0.0,16.5,2 
TCOON,ioos:station:TCOON:127:1,2015-02-10T10:12:00Z,28.2598,-96.7737,0.0,16.8,2 
TCOON,ioos:station:TCOON:127:1,2015-02-10T11:12:00Z,28.2598,-96.7737,0.0,16.5,2 
TCOON,ioos:station:TCOON:127:1,2015-02-10T12:18:00Z,28.2598,-96.7737,0.0,16.7,2 
TCOON,ioos:station:TCOON:127:1,2015-02-10T13:18:00Z,28.2598,-96.7737,0.0,16.6,2 
TCOON,ioos:station:TCOON:127:1,2015-02-10T14:12:00Z,28.2598,-96.7737,0.0,16.5,2 
TCOON,ioos:station:TCOON:127:1,2015-02-10T15:18:00Z,28.2598,-96.7737,0.0,16.3,2 
TCOON,ioos:station:TCOON:127:1,2015-02-10T16:18:00Z,28.2598,-96.7737,0.0,16.5,2 
TCOON,ioos:station:TCOON:127:1,2015-02-10T17:18:00Z,28.2598,-96.7737,0.0,16.7,2 
TCOON,ioos:station:TCOON:127:1,2015-02-10T18:18:00Z,28.2598,-96.7737,0.0,16.8,2 
TCOON,ioos:station:TCOON:127:1,2015-02-10T19:18:00Z,28.2598,-96.7737,0.0,17.0,2 
TCOON,ioos:station:TCOON:127:1,2015-02-10T20:18:00Z,28.2598,-96.7737,0.0,17.2,2 
TCOON,ioos:station:TCOON:127:1,2015-02-10T21:18:00Z,28.2598,-96.7737,0.0,17.7,2 
TCOON,ioos:station:TCOON:127:1,2015-02-10T22:18:00Z,28.2598,-96.7737,0.0,18.0,2 
TCOON,ioos:station:TCOON:127:1,2015-02-10T23:24:00Z,28.2598,-96.7737,0.0,18.1,2 
TCOON,ioos:station:TCOON:127:1,2015-02-11T10:30:00Z,28.2598,-96.7737,0.0,17.4,2 
TCOON,ioos:station:TCOON:127:1,2015-02-11T11:12:00Z,28.2598,-96.7737,0.0,17.4,2 
TCOON,ioos:station:TCOON:127:1,2015-02-11T12:12:00Z,28.2598,-96.7737,0.0,17.4,2 
TCOON,ioos:station:TCOON:127:1,2015-02-11T13:18:00Z,28.2598,-96.7737,0.0,17.4,2 
TCOON,ioos:station:TCOON:127:1,2015-02-11T14:18:00Z,28.2598,-96.7737,0.0,17.3,2 
TCOON,ioos:station:TCOON:127:1,2015-02-11T15:18:00Z,28.2598,-96.7737,0.0,17.5,2 
TCOON,ioos:station:TCOON:127:1,2015-02-11T16:18:00Z,28.2598,-96.7737,0.0,17.6,2 
TCOON,ioos:station:TCOON:127:1,2015-02-11T17:18:00Z,28.2598,-96.7737,0.0,17.8,2 
TCOON,ioos:station:TCOON:127:1,2015-02-11T18:18:00Z,28.2598,-96.7737,0.0,17.9,2 
TCOON,ioos:station:TCOON:127:1,2015-02-11T19:18:00Z,28.2598,-96.7737,0.0,18.1,2 
TCOON,ioos:station:TCOON:127:1,2015-02-11T20:18:00Z,28.2598,-96.7737,0.0,18.3,2 
TCOON,ioos:station:TCOON:127:1,2015-02-11T21:18:00Z,28.2598,-96.7737,0.0,18.8,2 
TCOON,ioos:station:TCOON:127:1,2015-02-11T22:18:00Z,28.2598,-96.7737,0.0,19.0,2 
TCOON,ioos:station:TCOON:127:1,2015-02-11T23:18:00Z,28.2598,-96.7737,0.0,19.1,2 
TCOON,ioos:station:TCOON:127:1,2015-02-12T00:18:00Z,28.2598,-96.7737,0.0,19.1,2 
TCOON,ioos:station:TCOON:127:1,2015-02-12T01:18:00Z,28.2598,-96.7737,0.0,19.0,2 
TCOON,ioos:station:TCOON:127:1,2015-02-12T02:18:00Z,28.2598,-96.7737,0.0,18.9,2 
TCOON,ioos:station:TCOON:127:1,2015-02-12T03:12:00Z,28.2598,-96.7737,0.0,18.9,2 
TCOON,ioos:station:TCOON:127:1,2015-02-12T04:12:00Z,28.2598,-96.7737,0.0,18.9,2 
TCOON,ioos:station:TCOON:127:1,2015-02-12T05:18:00Z,28.2598,-96.7737,0.0,18.8,2 
TCOON,ioos:station:TCOON:127:1,2015-02-12T06:18:00Z,28.2598,-96.7737,0.0,18.8,2 
TCOON,ioos:station:TCOON:127:1,2015-02-12T07:12:00Z,28.2598,-96.7737,0.0,18.8,2 
TCOON,ioos:station:TCOON:127:1,2015-02-12T08:18:00Z,28.2598,-96.7737,0.0,18.8,2 
TCOON,ioos:station:TCOON:127:1,2015-02-12T09:18:00Z,28.2598,-96.7737,0.0,18.7,2 
TCOON,ioos:station:TCOON:127:1,2015-02-12T10:12:00Z,28.2598,-96.7737,0.0,18.6,2 
TCOON,ioos:station:TCOON:127:1,2015-02-12T11:12:00Z,28.2598,-96.7737,0.0,18.5,2 
TCOON,ioos:station:TCOON:127:1,2015-02-12T12:12:00Z,28.2598,-96.7737,0.0,18.4,2 
TCOON,ioos:station:TCOON:127:1,2015-02-12T13:18:00Z,28.2598,-96.7737,0.0,18.3,2 
TCOON,ioos:station:TCOON:127:1,2015-02-12T14:18:00Z,28.2598,-96.7737,0.0,18.1,2 
TCOON,ioos:station:TCOON:127:1,2015-02-12T15:18:00Z,28.2598,-96.7737,0.0,18.0,2 
TCOON,ioos:station:TCOON:127:1,2015-02-12T16:18:00Z,28.2598,-96.7737,0.0,18.0,2 
TCOON,ioos:station:TCOON:127:1,2015-02-12T17:18:00Z,28.2598,-96.7737,0.0,18.0,2 
TCOON,ioos:station:TCOON:127:1,2015-02-12T18:18:00Z,28.2598,-96.7737,0.0,18.1,2 
TCOON,ioos:station:TCOON:127:1,2015-02-12T19:18:00Z,28.2598,-96.7737,0.0,18.2,2 
TCOON,ioos:station:TCOON:127:1,2015-02-12T20:18:00Z,28.2598,-96.7737,0.0,18.3,2 
TCOON,ioos:station:TCOON:127:1,2015-02-12T21:18:00Z,28.2598,-96.7737,0.0,18.4,2 
TCOON,ioos:station:TCOON:127:1,2015-02-12T22:12:00Z,28.2598,-96.7737,0.0,18.5,2 
TCOON,ioos:station:TCOON:127:1,2015-02-12T23:12:00Z,28.2598,-96.7737,0.0,18.5,2 
TCOON,ioos:station:TCOON:127:1,2015-02-13T00:18:00Z,28.2598,-96.7737,0.0,18.5,2 
TCOON,ioos:station:TCOON:127:1,2015-02-13T01:18:00Z,28.2598,-96.7737,0.0,18.3,2 
TCOON,ioos:station:TCOON:127:1,2015-02-13T02:18:00Z,28.2598,-96.7737,0.0,18.2,2 
TCOON,ioos:station:TCOON:127:1,2015-02-13T03:18:00Z,28.2598,-96.7737,0.0,18.1,2 
TCOON,ioos:station:TCOON:127:1,2015-02-13T04:18:00Z,28.2598,-96.7737,0.0,18.0,2 
TCOON,ioos:station:TCOON:127:1,2015-02-13T05:18:00Z,28.2598,-96.7737,0.0,17.9,2 
TCOON,ioos:station:TCOON:127:1,2015-02-13T06:18:00Z,28.2598,-96.7737,0.0,17.8,2 
TCOON,ioos:station:TCOON:127:1,2015-02-13T07:12:00Z,28.2598,-96.7737,0.0,17.8,2 
TCOON,ioos:station:TCOON:127:1,2015-02-13T08:12:00Z,28.2598,-96.7737,0.0,17.6,2 
TCOON,ioos:station:TCOON:127:1,2015-02-13T09:18:00Z,28.2598,-96.7737,0.0,17.6,2 
TCOON,ioos:station:TCOON:127:1,2015-02-13T10:12:00Z,28.2598,-96.7737,0.0,17.6,2 
TCOON,ioos:station:TCOON:127:1,2015-02-13T11:12:00Z,28.2598,-96.7737,0.0,17.6,2 
TCOON,ioos:station:TCOON:127:1,2015-02-13T12:12:00Z,28.2598,-96.7737,0.0,17.6,2 
TCOON,ioos:station:TCOON:127:1,2015-02-13T13:18:00Z,28.2598,-96.7737,0.0,17.6,2 
TCOON,ioos:station:TCOON:127:1,2015-02-13T14:12:00Z,28.2598,-96.7737,0.0,17.5,2 
TCOON,ioos:station:TCOON:127:1,2015-02-13T15:18:00Z,28.2598,-96.7737,0.0,17.5,2 
TCOON,ioos:station:TCOON:127:1,2015-02-13T16:12:00Z,28.2598,-96.7737,0.0,17.5,2 
TCOON,ioos:station:TCOON:127:1,2015-02-13T17:18:00Z,28.2598,-96.7737,0.0,17.6,2 